Glens Falls, NY

11:07 PM EDT on October 18, 2019 (GMT -0400)
Bennett Memorial

Weather History for KGFL - August, 2019

Change the Weather History Date:

Friday, August 9, 2019

  Actual Average Record
Temperature  
Mean Temperature 68 °F 68 °F  
Max Temperature 81 °F 80 °F 98 °F (1949)
Min Temperature 55 °F 56 °F 43 °F (2004)
Degree Days  
Heating Degree Days 0 1  
Month to date heating degree days 1 9  
Since 1 June heating degree days 71 120  
Since 1 July heating degree days 1 30  
Cooling Degree Days 3 4  
Month to date cooling degree days 37 36  
Year to date cooling degree days 333 256  
Since 1 June cooling degree days 324 244  
Growing Degree Days 18 (Base 50)    
Moisture  
Dew Point 56 °F    
Average Humidity 68    
Maximum Humidity 100    
Minimum Humidity 36    
Precipitation  
Precipitation 0.00 in 0.13 in 1.16 in (1991)
Month to date precipitation 0.11 1.18  
Year to date precipitation 26.05 23.31  
Sea Level Pressure  
Sea Level Pressure 29.69 in    
Wind  
Wind Speed 7 mph (SW)    
Max Wind Speed 17 mph    
Max Gust Speed 28 mph    
Visibility 7 miles    
Events Fog    
T = Trace of Precipitation, MM = Missing Value Source: NWS Daily Summary

Daily Weather History Graph

Daily Weather History Graph

Search for Another Location

Airport or City:

Astronomy

Aug. 09, 2019 Rise Set
Actual Time 5:52 AM EDT 8:06 PM EDT
Civil Twilight 5:21 AM EDT 8:37 PM EDT
Nautical Twilight 4:42 AM EDT 9:16 PM EDT
Astronomical Twilight 3:58 AM EDT 9:59 PM EDT
Moon 3:46 PM EDT (8/9) 12:47 AM EDT (8/9)
Length of Visible Light 15h 16m
Length of Day
14h 13m
Waxing Gibbous, 70% of the Moon is Illuminated
Aug 9
Waxing Gibbous
Aug 15
Full
Aug 23
Last Quarter
Aug 30
New
Sep 5
First Quarter

Hourly Weather History & Observations

Time (EDT) Temp. Dew Point Humidity Pressure Visibility Wind Dir Wind Speed Gust Speed Precip Events Conditions
12:53 AM 64.0 °F 61.0 °F 90% 29.66 in 10.0 mi SSW 8.1 mph - N/A   Mostly Cloudy
1:53 AM 62.1 °F 60.1 °F 93% 29.67 in 10.0 mi Calm Calm - N/A   Clear
2:24 AM 62.1 °F 60.1 °F 93% 29.68 in 10.0 mi SSE 3.5 mph - N/A   Scattered Clouds
2:37 AM 62.1 °F 60.1 °F 93% 29.68 in 10.0 mi SSE 4.6 mph - N/A   Mostly Cloudy
2:53 AM 62.1 °F 60.1 °F 93% 29.67 in 10.0 mi South 5.8 mph - N/A   Mostly Cloudy
3:11 AM 62.1 °F 60.1 °F 93% 29.67 in 10.0 mi South 3.5 mph - N/A   Scattered Clouds
3:28 AM 62.1 °F 60.1 °F 93% 29.67 in 10.0 mi Calm Calm - N/A   Mostly Cloudy
3:53 AM 60.1 °F 59.0 °F 96% 29.67 in 3.0 mi Calm Calm - N/A   Mostly Cloudy
4:20 AM 59.0 °F 59.0 °F 100% 29.67 in 6.0 mi Calm Calm - N/A   Scattered Clouds
4:34 AM 60.1 °F 59.0 °F 96% 29.67 in 1.2 mi Calm Calm - N/A   Clear
4:42 AM 59.0 °F 57.9 °F 96% 29.67 in 0.5 mi Calm Calm - N/A Fog Fog
4:53 AM 57.9 °F 57.0 °F 97% 29.68 in 0.5 mi SSW 3.5 mph - N/A Fog Fog
5:04 AM 57.9 °F 57.0 °F 97% 29.68 in 2.0 mi Calm Calm - N/A   Clear
5:11 AM 57.0 °F 55.9 °F 96% 29.68 in 10.0 mi Calm Calm - N/A   Clear
5:21 AM 57.0 °F 57.0 °F 100% 29.68 in 1.5 mi Calm Calm - N/A   Partly Cloudy
5:24 AM 55.9 °F 55.9 °F 100% 29.68 in 0.8 mi Calm Calm - N/A   Mist
5:48 AM 55.4 °F 55.4 °F 100% 29.69 in 0.2 mi Calm Calm - N/A Fog Fog
5:53 AM 55.0 °F 55.0 °F 100% 29.69 in 0.2 mi SSW 3.5 mph - N/A Fog Fog
6:07 AM 55.9 °F 55.0 °F 97% 29.70 in 1.0 mi Calm Calm - N/A   Mist
6:09 AM 55.9 °F 55.0 °F 97% 29.70 in 2.0 mi Calm Calm - N/A   Scattered Clouds
6:13 AM 55.9 °F 55.0 °F 97% 29.70 in 0.8 mi Calm Calm - N/A   Mist
6:24 AM 57.0 °F 55.9 °F 96% 29.71 in 3.0 mi Calm Calm - N/A   Clear
6:53 AM 57.9 °F 57.0 °F 97% 29.71 in 7.0 mi South 4.6 mph - N/A   Clear
7:53 AM 64.9 °F 61.0 °F 87% 29.72 in 10.0 mi South 3.5 mph - N/A   Clear
8:53 AM 71.1 °F 57.9 °F 63% 29.72 in 10.0 mi Variable 4.6 mph - N/A   Clear
9:53 AM 73.9 °F 57.9 °F 57% 29.72 in 10.0 mi Variable 6.9 mph - N/A   Clear
10:53 AM 75.0 °F 55.9 °F 51% 29.71 in 10.0 mi SW 8.1 mph - N/A   Mostly Cloudy
11:53 AM 77.0 °F 53.1 °F 43% 29.71 in 10.0 mi West 12.7 mph 21.9 mph N/A   Partly Cloudy
12:53 PM 78.1 °F 53.1 °F 42% 29.70 in 10.0 mi Variable 5.8 mph - N/A   Scattered Clouds
1:53 PM 80.1 °F 52.0 °F 38% 29.68 in 10.0 mi SW 11.5 mph - N/A   Scattered Clouds
2:53 PM 77.0 °F 52.0 °F 42% 29.68 in 10.0 mi WSW 11.5 mph 18.4 mph N/A   Clear
3:53 PM 78.1 °F 53.1 °F 42% 29.68 in 10.0 mi WSW 12.7 mph 27.6 mph N/A   Clear
4:53 PM 78.1 °F 54.0 °F 43% 29.68 in 10.0 mi WSW 13.8 mph 20.7 mph N/A   Clear
5:53 PM 78.1 °F 51.1 °F 39% 29.69 in 10.0 mi West 11.5 mph 18.4 mph N/A   Clear
6:53 PM 73.9 °F 48.0 °F 40% 29.72 in 10.0 mi West 10.4 mph 19.6 mph N/A   Clear
7:53 PM 72.0 °F 48.9 °F 44% 29.72 in 10.0 mi West 5.8 mph - N/A   Clear
8:53 PM 69.1 °F 48.9 °F 49% 29.73 in 10.0 mi Calm Calm - N/A   Clear
9:53 PM 66.9 °F 51.1 °F 57% 29.75 in 10.0 mi SW 5.8 mph - N/A   Clear
10:53 PM 66.0 °F 51.1 °F 59% 29.74 in 10.0 mi SSW 4.6 mph - N/A   Partly Cloudy
11:53 PM 66.9 °F 53.1 °F 61% 29.74 in 10.0 mi WSW 10.4 mph - N/A   Partly Cloudy